Tracking 28052 objects as of 21-Sep-2023
HD Live streaming from Space Station
objects crossing your sky now

STARLINK-4787

Track STARLINK-4787 now!
10-day predictions
STARLINK-4787 is classified as:


NORAD ID: 53904
Int'l Code: 2022-119U
Perigee: 546.0 km
Apogee: 547.8 km
Inclination: 53.2 °
Period: 95.4 minutes
Semi major axis: 6917 km
RCS: Unknown
Launch date: September 24, 2022
Source: United States (US)
Launch site: AIR FORCE EASTERN TEST RANGE (AFETR)
Your satellite tracking list
Your tracking list is empty




NASA's NSSDC Master Catalog

Two Line Element Set (TLE):
1 53904U 22119U   23263.71488643 -.00000475  00000-0 -11747-4 0  9995
2 53904  53.2190  48.3524 0001299  84.4077 275.7063 15.08825596 55256
Source of the keplerian elements: AFSPC